• en France
  • Liste des pays
  • À 7 jours
  • Température de l'eau
  • Carte satellitaire
  • Carte météo
  • Widgets météo
  • user-avatar
    Se connecter

    Météo par heure à Shkodёr

    Ce jour, 25 Septembre, Mardi

    Heure Température Précipitation Vent Pression Humidité
    00:00 +11°C° 0 mm 6 m/s 745 mmHg 65%
    01:00 +10°C° 0 mm 6 m/s 745 mmHg 65%
    02:00 +10°C° 0 mm 6 m/s 746 mmHg 65%
    03:00 +9°C° 0 mm 6 m/s 746 mmHg 64%
    04:00 +9°C° 0 mm 6 m/s 746 mmHg 64%
    05:00 +9°C° 0 mm 6 m/s 746 mmHg 62%
    06:00 +10°C° 0 mm 6 m/s 747 mmHg 59%
    07:00 +10°C° 0 mm 8 m/s 747 mmHg 56%
    08:00 +12°C° 0 mm 7 m/s 747 mmHg 49%
    09:00 +15°C° 0 mm 7 m/s 747 mmHg 42%
    10:00 +17°C° 0 mm 6 m/s 747 mmHg 35%
    11:00 +19°C° 0 mm 6 m/s 747 mmHg 32%
    12:00 +20°C° 0 mm 6 m/s 747 mmHg 30%
    13:00 +21°C° 0 mm 6 m/s 746 mmHg 28%
    14:00 +20°C° 0 mm 6 m/s 746 mmHg 30%
    15:00 +19°C° 0 mm 6 m/s 746 mmHg 31%
    16:00 +19°C° 0 mm 6 m/s 746 mmHg 32%
    17:00 +16°C° 0 mm 6 m/s 747 mmHg 38%
    18:00 +14°C° 0 mm 6 m/s 747 mmHg 43%
    19:00 +11°C° 0 mm 6 m/s 748 mmHg 48%
    20:00 +10°C° 0 mm 6 m/s 748 mmHg 51%
    21:00 +9°C° 0 mm 6 m/s 749 mmHg 53%
    22:00 +9°C° 0 mm 6 m/s 749 mmHg 55%
    23:00 +8°C° 0 mm 6 m/s 749 mmHg 56%

    Demain, 26 Septembre, Mercredi

    Heure Température Précipitation Vent Pression Humidité
    00:00 +8°C° 0 mm 6 m/s 750 mmHg 56%
    01:00 +7°C° 0 mm 6 m/s 750 mmHg 56%
    02:00 +7°C° 0 mm 6 m/s 750 mmHg 57%
    03:00 +7°C° 0 mm 6 m/s 750 mmHg 58%
    04:00 +7°C° 0 mm 6 m/s 750 mmHg 59%
    05:00 +7°C° 0 mm 6 m/s 750 mmHg 55%
    06:00 +8°C° 0 mm 6 m/s 750 mmHg 51%
    07:00 +9°C° 0 mm 6 m/s 750 mmHg 47%
    08:00 +10°C° 0 mm 7 m/s 750 mmHg 42%
    09:00 +12°C° 0 mm 7 m/s 750 mmHg 36%
    10:00 +15°C° 0 mm 7 m/s 750 mmHg 30%
    11:00 +16°C° 0 mm 7 m/s 750 mmHg 28%
    12:00 +17°C° 0 mm 7 m/s 750 mmHg 26%
    13:00 +19°C° 0 mm 6 m/s 749 mmHg 24%
    14:00 +19°C° 0 mm 6 m/s 749 mmHg 25%
    15:00 +17°C° 0 mm 6 m/s 749 mmHg 26%
    16:00 +17°C° 0 mm 5 m/s 749 mmHg 27%
    17:00 +15°C° 0 mm 5 m/s 750 mmHg 32%
    18:00 +12°C° 0 mm 5 m/s 750 mmHg 37%
    19:00 +9°C° 0 mm 5 m/s 751 mmHg 42%
    20:00 +10°C° 0 mm 4 m/s 751 mmHg 44%
    21:00 +8°C° 0 mm 4 m/s 752 mmHg 45%
    22:00 +7°C° 0 mm 4 m/s 752 mmHg 47%
    23:00 +7°C° 0 mm 4 m/s 752 mmHg 47%

    Après-demain, 27 Septembre, Jeudi

    Heure Température Précipitation Vent Pression Humidité
    00:00 +7°C° 0 mm 4 m/s 752 mmHg 47%
    01:00 +6°C° 0 mm 4 m/s 752 mmHg 47%
    02:00 +6°C° 0 mm 4 m/s 751 mmHg 47%
    03:00 +6°C° 0 mm 4 m/s 751 mmHg 47%
    04:00 +6°C° 0 mm 4 m/s 751 mmHg 46%
    05:00 +7°C° 0 mm 4 m/s 750 mmHg 44%
    06:00 +8°C° 0 mm 4 m/s 750 mmHg 41%
    07:00 +10°C° 0 mm 4 m/s 750 mmHg 38%
    08:00 +13°C° 0 mm 4 m/s 750 mmHg 33%
    09:00 +15°C° 0 mm 4 m/s 749 mmHg 29%
    10:00 +19°C° 0 mm 4 m/s 749 mmHg 24%
    11:00 +20°C° 0 mm 4 m/s 749 mmHg 23%
    12:00 +21°C° 0 mm 4 m/s 748 mmHg 21%
    13:00 +23°C° 0 mm 4 m/s 747 mmHg 20%
    14:00 +22°C° 0 mm 4 m/s 747 mmHg 22%
    15:00 +22°C° 0 mm 4 m/s 746 mmHg 23%
    16:00 +21°C° 0 mm 4 m/s 746 mmHg 25%
    17:00 +19°C° 0 mm 4 m/s 746 mmHg 29%
    18:00 +17°C° 0 mm 4 m/s 746 mmHg 34%
    19:00 +13°C° 0 mm 3 m/s 746 mmHg 38%
    20:00 +13°C° 0 mm 4 m/s 746 mmHg 39%
    21:00 +12°C° 0 mm 4 m/s 746 mmHg 40%
    22:00 +12°C° 0 mm 4 m/s 747 mmHg 41%
    23:00 +11°C° 0 mm 4 m/s 746 mmHg 41%

    28 Septembre, Vendredi

    Heure Température Précipitation Vent Pression Humidité
    00:00 +11°C° 0 mm 4 m/s 746 mmHg 41%
    01:00 +11°C° 0 mm 4 m/s 745 mmHg 41%
    02:00 +11°C° 0 mm 4 m/s 745 mmHg 41%
    03:00 +11°C° 0 mm 4 m/s 744 mmHg 40%
    04:00 +10°C° 0 mm 4 m/s 744 mmHg 40%
    05:00 +11°C° 0 mm 4 m/s 743 mmHg 39%
    06:00 +12°C° 0 mm 4 m/s 743 mmHg 38%
    07:00 +13°C° 0 mm 4 m/s 743 mmHg 37%
    08:00 +17°C° 0 mm 4 m/s 743 mmHg 32%
    09:00 +20°C° 0 mm 3 m/s 742 mmHg 27%
    10:00 +24°C° 0 mm 3 m/s 742 mmHg 22%
    11:00 +25°C° 0 mm 3 m/s 741 mmHg 21%
    12:00 +26°C° 0 mm 3 m/s 741 mmHg 19%
    13:00 +27°C° 0 mm 2 m/s 740 mmHg 18%
    14:00 +27°C° 0 mm 2 m/s 740 mmHg 19%
    15:00 +26°C° 0 mm 3 m/s 739 mmHg 21%
    16:00 +26°C° 0 mm 3 m/s 739 mmHg 23%
    17:00 +22°C° 0 mm 3 m/s 739 mmHg 25%
    18:00 +19°C° 0 mm 3 m/s 739 mmHg 28%
    19:00 +16°C° 0 mm 3 m/s 739 mmHg 31%
    20:00 +16°C° 0 mm 3 m/s 739 mmHg 29%
    21:00 +16°C° 0 mm 3 m/s 740 mmHg 28%
    22:00 +14°C° 0 mm 3 m/s 740 mmHg 26%
    23:00 +14°C° 0 mm 3 m/s 740 mmHg 26%

    29 Septembre, Samedi

    Heure Température Précipitation Vent Pression Humidité
    00:00 +14°C° 0 mm 3 m/s 739 mmHg 26%
    01:00 +14°C° 0 mm 3 m/s 739 mmHg 26%
    02:00 +14°C° 0 mm 3 m/s 739 mmHg 26%
    03:00 +14°C° 0 mm 3 m/s 739 mmHg 27%
    04:00 +14°C° 0 mm 3 m/s 739 mmHg 27%
    05:00 +14°C° 0 mm 3 m/s 739 mmHg 28%
    06:00 +16°C° 0 mm 3 m/s 739 mmHg 29%
    07:00 +17°C° 0 mm 3 m/s 739 mmHg 30%
    08:00 +19°C° 0 mm 3 m/s 739 mmHg 27%
    09:00 +22°C° 0 mm 3 m/s 739 mmHg 24%
    10:00 +25°C° 0 mm 3 m/s 739 mmHg 21%
    11:00 +26°C° 0 mm 3 m/s 739 mmHg 21%
    12:00 +27°C° 0 mm 3 m/s 738 mmHg 22%
    13:00 +28°C° 0 mm 4 m/s 738 mmHg 22%
    14:00 +27°C° 0 mm 4 m/s 738 mmHg 24%
    15:00 +27°C° 0 mm 4 m/s 738 mmHg 26%
    16:00 +26°C° 0 mm 4 m/s 738 mmHg 29%
    17:00 +23°C° 0 mm 4 m/s 738 mmHg 35%
    18:00 +21°C° 0 mm 4 m/s 739 mmHg 42%
    19:00 +18°C° 0 mm 4 m/s 739 mmHg 48%
    20:00 +18°C° 0 mm 4 m/s 739 mmHg 51%
    21:00 +17°C° 0 mm 4 m/s 739 mmHg 54%
    22:00 +17°C° 0 mm 4 m/s 740 mmHg 58%
    23:00 +15°C° 0 mm 4 m/s 740 mmHg 59%

    30 Septembre, Dimanche

    Heure Température Précipitation Vent Pression Humidité
    00:00 +15°C° 0 mm 4 m/s 740 mmHg 60%
    01:00 +14°C° 0 mm 4 m/s 740 mmHg 62%
    02:00 +14°C° 0 mm 4 m/s 740 mmHg 63%
    03:00 +14°C° 0 mm 4 m/s 740 mmHg 65%
    04:00 +13°C° 0 mm 4 m/s 740 mmHg 67%
    05:00 +14°C° 0 mm 4 m/s 740 mmHg 65%
    06:00 +14°C° 0 mm 4 m/s 740 mmHg 64%
    07:00 +15°C° 0 mm 4 m/s 740 mmHg 63%
    08:00 +18°C° 0 mm 4 m/s 740 mmHg 56%
    09:00 +20°C° 0 mm 4 m/s 740 mmHg 49%
    10:00 +22°C° 0 mm 4 m/s 740 mmHg 42%
    11:00 +24°C° 0 mm 3 m/s 740 mmHg 39%
    12:00 +26°C° 0 mm 3 m/s 739 mmHg 37%
    13:00 +27°C° 0 mm 3 m/s 739 mmHg 34%
    14:00 +26°C° 0 mm 3 m/s 739 mmHg 36%
    15:00 +26°C° 0 mm 3 m/s 738 mmHg 37%
    16:00 +25°C° 0 mm 3 m/s 738 mmHg 38%
    17:00 +22°C° 0 mm 3 m/s 738 mmHg 44%
    18:00 +20°C° 0 mm 3 m/s 739 mmHg 50%
    19:00 +18°C° 0 mm 3 m/s 739 mmHg 56%
    20:00 +17°C° 0 mm 3 m/s 739 mmHg 58%
    21:00 +17°C° 0 mm 2 m/s 739 mmHg 60%
    22:00 +16°C° 0 mm 2 m/s 739 mmHg 61%
    23:00 +16°C° 0 mm 2 m/s 739 mmHg 63%
    Voir plus